< < Back
Terminal Aerodrome Forecast


Current Version              Previous Versions:   1  2  3  4  5  6  7  8  9  

Terminal Aerodrome Forecast

531
FTUS42 KGSP 232300
TAFHKY
TAF
KHKY 232335Z 2400/2424 34010KT P6SM FEW250
     FM240300 02005KT P6SM SKC
     FM241500 12006KT P6SM FEW250
     FM241800 19008KT P6SM FEW250=



Latest METAR

265
SAUS70 KWBC 241800 RRB
MTRHKY
METAR KHKY 241753Z 00000KT 10SM CLR 19/02 A3005 RMK AO2 SLP162 T01890022
10194 20078 58031


USA.gov is the U.S. government's official web portal to all federal, state and local government web resources and services.